This is the latest recevied weather packets stored in our database for station/object WP3OF-5. If no packets are shown the sender has not sent any weather packets the latest 10 day(s).
| Time | Temp. | Humidity | Pressure | Rain* | Wind** | Luminosity | Snow |
|---|---|---|---|---|---|---|---|
| 1777568871 | 27.78° C | 79% | 1013.6 hPa | 0 mm | - | - | - |
| 1777568569 | 27.78° C | 80% | 1014 hPa | 0 mm | - | - | - |
| 1777568266 | 27.78° C | 79% | 1013.7 hPa | 0 mm | - | - | - |
| 1777567962 | 27.78° C | 79% | 1013.7 hPa | 0 mm | - | - | - |
| 1777567658 | 27.78° C | 81% | 1013.8 hPa | 0 mm | - | - | - |
| 1777567356 | 27.78° C | 81% | 1014 hPa | 0 mm | - | - | - |
| 1777567054 | 27.78° C | 81% | 1013.7 hPa | 0 mm | - | - | - |
| 1777566752 | 27.78° C | 81% | 1014.1 hPa | 0 mm | - | - | - |
| 1777566449 | 27.78° C | 81% | 1014 hPa | 0 mm | - | - | - |
| 1777566146 | 27.78° C | 79% | 1013.9 hPa | 0 mm | - | - | - |
| 1777565841 | 28.33° C | 79% | 1013.8 hPa | 0 mm | - | - | - |
| 1777565538 | 28.89° C | 78% | 1013.8 hPa | 0 mm | - | - | - |
| 1777565235 | 29.44° C | 76% | 1013.9 hPa | 0 mm | - | - | - |
| 1777564931 | 29.44° C | 75% | 1013.7 hPa | 0 mm | - | - | - |
| 1777564626 | 29.44° C | 77% | 1013.7 hPa | 0 mm | - | - | - |
| 1777564321 | 29.44° C | 75% | 1013.6 hPa | 0 mm | - | - | - |
| 1777564018 | 28.89° C | 73% | 1013.6 hPa | 0 mm | - | - | - |
| 1777563714 | 28.89° C | 71% | 1013.6 hPa | 0 mm | - | - | - |
| 1777563410 | 29.44° C | 73% | 1013.7 hPa | 0 mm | - | - | - |
| 1777563105 | 29.44° C | 70% | 1013.8 hPa | 0 mm | - | - | - |
| 1777562800 | 30° C | 70% | 1013.7 hPa | 0 mm | - | - | - |
| 1777562499 | 30° C | 70% | 1013.6 hPa | 0 mm | - | - | - |
| 1777562196 | 29.44° C | 72% | 1013.7 hPa | 0 mm | - | - | - |
| 1777561894 | 29.44° C | 73% | 1013.5 hPa | 0 mm | - | - | - |
| 1777561590 | 28.89° C | 70% | 1013.5 hPa | 0 mm | - | - | - |
* Rain latest hour (hover to see other rain measurements)
** Current wind speed in m/s (hover to see current wind gust speed)